Weather History for Easton, MD

Change the Weather History Date:

Monday, January 27, 2014

  Actual Average Record
Temperature  
Mean Temperature 38 °F -  
Max Temperature 50 °F 48 °F 74 °F (1950)
Min Temperature 24 °F 30 °F 6 °F (1961)
Degree Days  
Heating Degree Days 28    
Moisture  
Dew Point 21 °F    
Average Humidity 52    
Maximum Humidity 70    
Minimum Humidity 34    
Precipitation  
Precipitation 0.00 in - - ()
Sea Level Pressure  
Sea Level Pressure 29.88 in    
Wind  
Wind Speed 12 mph (West)    
Max Wind Speed 22 mph    
Max Gust Speed 31 mph    
Visibility 10 miles    
Events      
Averages and records for this station are not official NWS values.
T = Trace of Precipitation, MM = Missing Value Source: NWS Daily Summary

Daily Weather History Graph

Daily Weather History Graph

Search for Another Location

Airport:

Trip Planner

Search our weather history database for the weather conditions in past years. The results will help you decide how hot, cold, wet, or windy it might be!

Date:

Astronomy

Jan. 27, 2014 Rise Set
Actual Time 7:14 AM EST 5:20 PM EST
Civil Twilight 6:46 AM EST 5:48 PM EST
Nautical Twilight 6:13 AM EST 6:20 PM EST
Astronomical Twilight 5:42 AM EST 6:52 PM EST
Moon 3:52 AM EST (1/27) 2:04 PM EST (1/27)
Length of Visible Light 11h 02m
Length of Day
10h 05m
Waning Crescent, 15% of the Moon is Illuminated
Jan 27
Waning Crescent
Jan 30
New
Feb 6
First Quarter
Feb 14
Full
Feb 22
Last Quarter

Hourly Weather History & Observations

Time (EST) Temp. Windchill Dew Point Humidity Pressure Visibility Wind Dir Wind Speed Gust Speed Precip Events Conditions
12:02 AM 36.5 °F 31.0 °F 27.3 °F 69% 29.82 in 10.0 mi SSW 6.9 mph - N/A   Clear
12:22 AM 36.9 °F 30.1 °F 27.3 °F 68% 29.82 in 10.0 mi SSW 9.2 mph - N/A   Clear
12:42 AM 37.8 °F 31.3 °F 27.3 °F 66% 29.80 in 10.0 mi SSW 9.2 mph - N/A   Clear
1:02 AM 38.1 °F 31.2 °F 27.1 °F 65% 29.79 in 10.0 mi SSW 10.4 mph - N/A   Clear
1:22 AM 38.3 °F 31.4 °F 27.0 °F 64% 29.77 in 10.0 mi SSW 10.4 mph - N/A   Clear
1:42 AM 38.7 °F 31.8 °F 26.6 °F 62% 29.77 in 10.0 mi SSW 10.4 mph - N/A   Clear
2:02 AM 39.4 °F 32.7 °F 26.4 °F 60% 29.77 in 10.0 mi SW 10.4 mph - N/A   Clear
2:22 AM 40.3 °F 33.9 °F 26.6 °F 58% 29.76 in 10.0 mi SW 10.4 mph - N/A   Clear
2:42 AM 41.2 °F 33.7 °F 27.1 °F 57% 29.75 in 10.0 mi SW 13.8 mph - N/A   Clear
3:03 AM 42.1 °F 34.2 °F 27.5 °F 56% 29.75 in 10.0 mi SW 16.1 mph 19.6 mph N/A   Clear
3:23 AM 42.8 °F 36.2 °F 28.0 °F 56% 29.75 in 10.0 mi SW 12.7 mph - N/A   Clear
3:43 AM 43.2 °F 37.4 °F 28.2 °F 56% 29.75 in 10.0 mi SW 10.4 mph 16.1 mph N/A   Clear
4:03 AM 42.8 °F 36.6 °F 28.4 °F 57% 29.74 in 10.0 mi SW 11.5 mph 18.4 mph N/A   Clear
4:23 AM 43.0 °F 36.4 °F 28.6 °F 57% 29.74 in 10.0 mi SW 12.7 mph - N/A   Clear
4:43 AM 42.6 °F 35.9 °F 28.8 °F 58% 29.74 in 10.0 mi SW 12.7 mph - N/A   Clear
5:03 AM 42.1 °F 36.1 °F 29.1 °F 60% 29.73 in 10.0 mi SW 10.4 mph 16.1 mph N/A   Clear
5:22 AM 42.3 °F 36.8 °F 29.1 °F 60% 29.73 in 10.0 mi SSW 9.2 mph - N/A   Clear
5:45 AM 41.0 °F 34.7 °F 28.4 °F 61% 29.72 in 10.0 mi SSW 10.4 mph 23.0 mph N/A   Mostly Cloudy
6:50 AM 41.0 °F 34.3 °F 30.2 °F 65% 29.73 in 10.0 mi SSW 11.5 mph - N/A   Scattered Clouds
7:50 AM 39.2 °F 32.5 °F 30.2 °F 70% 29.72 in 10.0 mi SSW 10.4 mph - N/A   Overcast
8:50 AM 41.0 °F 34.7 °F 30.2 °F 65% 29.72 in 10.0 mi SSW 10.4 mph - N/A   Overcast
9:50 AM 44.6 °F 40.2 °F 30.2 °F 57% 29.75 in 10.0 mi SW 8.1 mph - N/A   Mostly Cloudy
10:50 AM 44.6 °F 38.4 °F 32.0 °F 61% 29.76 in 10.0 mi SW 12.7 mph 18.4 mph N/A   Overcast
11:50 AM 46.4 °F 42.4 °F 32.0 °F 57% 29.75 in 10.0 mi SW 8.1 mph - N/A   Overcast
12:50 PM 50.0 °F - 32.0 °F 50% 29.78 in 10.0 mi NNW 18.4 mph 24.2 mph N/A   Mostly Cloudy
1:50 PM 42.8 °F 34.5 °F 24.8 °F 49% 29.84 in 10.0 mi NNW 18.4 mph 26.5 mph N/A   Scattered Clouds
2:50 PM 41.0 °F 32.5 °F 21.2 °F 45% 29.87 in 10.0 mi North 17.3 mph 25.3 mph N/A   Partly Cloudy
3:53 PM 37.4 °F 27.2 °F 17.6 °F 45% 29.92 in 10.0 mi North 19.6 mph 28.8 mph N/A   Scattered Clouds
4:50 PM 35.6 °F 25.5 °F 12.2 °F 38% 29.97 in 10.0 mi NNW 17.3 mph 26.5 mph N/A   Mostly Cloudy
5:50 PM 30.2 °F 19.3 °F 8.6 °F 40% 30.03 in 10.0 mi NNW 15.0 mph 25.3 mph N/A   Mostly Cloudy
6:50 PM 30.2 °F 19.3 °F 8.6 °F 40% 30.05 in 10.0 mi NNW 15.0 mph 19.6 mph N/A   Mostly Cloudy
7:50 PM 30.2 °F 18.5 °F 6.8 °F 37% 30.06 in 10.0 mi NNW 17.3 mph 25.3 mph N/A   Scattered Clouds
7:53 PM 30.2 °F 18.5 °F 5.0 °F 34% 30.09 in 10.0 mi NNW 17.3 mph 26.5 mph N/A   Scattered Clouds
8:50 PM 28.4 °F 16.2 °F 5.0 °F 37% 30.11 in 10.0 mi NNW 17.3 mph 24.2 mph N/A   Mostly Cloudy
9:45 PM 28.4 °F 15.8 °F 3.9 °F 35% 30.14 in 10.0 mi NNW 18.4 mph 28.8 mph N/A   Mostly Cloudy
10:05 PM 28.2 °F 16.3 °F 3.0 °F 34% 30.16 in 10.0 mi North 16.1 mph 24.2 mph N/A   Overcast
10:25 PM 27.7 °F 17.1 °F 4.5 °F 37% 30.16 in 10.0 mi North 12.7 mph 20.7 mph N/A   Mostly Cloudy
10:45 PM 27.1 °F 13.1 °F 3.2 °F 36% 30.17 in 10.0 mi NNW 21.9 mph 29.9 mph N/A   Mostly Cloudy
11:05 PM 26.4 °F 14.0 °F 1.8 °F 35% 30.18 in 10.0 mi North 16.1 mph 31.1 mph N/A   Mostly Cloudy
11:25 PM 25.7 °F 13.5 °F 0.9 °F 34% 30.19 in 10.0 mi NNW 15.0 mph 25.3 mph N/A   Mostly Cloudy
11:45 PM 24.8 °F 10.0 °F 0.9 °F 36% 30.20 in 10.0 mi North 21.9 mph 28.8 mph N/A   Scattered Clouds